Regional Weather Roundup
Issued by NWS

Home | Current Version | Previous Version | Graphics & Text | Print | Product List | Glossary On
Versions: 1 2 3 4 5 6 7 8 9 10 11 12 13 14 15 16 17 18 19 20 21 22 23 24 25 26 27 28 29 30 31 32 33 34 35 36 37 38 39 40 41 42 43 44 45 46 47 48 49 50
000
ASUS44 KMEG 201210
RWRTN
TENNESSEE HOURLY STATE WEATHER ROUNDUP
NATIONAL WEATHER SERVICE MEMPHIS TN
600 AM CST FRI JAN 20 2017

TNZ002-004-019-021-049-052-054-088>092-201300-
WEST TENNESSEE

CITY           SKY/WX    TMP DP  RH WIND       PRES   REMARKS
MEMPHIS INTL   CLOUDY    57  56  96 S8        29.72R
NWS MEMPHIS      N/A     57 N/A N/A MISG        N/A
JACKSON        CLOUDY    56  55  97 S6        29.73R
DYERSBURG      CLOUDY    55  52  88 CALM      29.71R
UNION CITY     CLOUDY   N/A N/A N/A SW5       29.70R
PARIS          CLOUDY    54  52  94 CALM      29.72R
HUNTINGDON     CLOUDY    55  55 100 S5        29.72R
$$

TNZ008-025-027-028-033-062-065-066-201300-
NORTH MIDDLE TENNESSEE

CITY           SKY/WX    TMP DP  RH WIND       PRES   REMARKS
NASHVILLE      CLOUDY    56  53  90 SW3       29.77R
PORTLAND       CLOUDY    55  54  94 SW7       29.75R
CLARKSVILLE    CLOUDY    56  52  86 S8        29.72R
SMYRNA         CLOUDY    56  54  93 SW3       29.78R
GALLATIN       CLOUDY    55  54  94 CALM      29.79R
CROSSVILLE     CLOUDY    55  53  93 SW9       29.79R
$$

TNZ061-075-076-078-094-096-097-201300-
SOUTH MIDDLE TENNESSEE

CITY           SKY/WX    TMP DP  RH WIND       PRES   REMARKS
TULLAHOMA      CLOUDY    57  55  94 SW10      29.79R
WINCHESTER     CLOUDY    57  55  94 SW6       29.79S
MCMINNVILLE    CLOUDY    57  57 100 SW5       29.78R
COLUMBIA       CLOUDY   N/A N/A N/A S3        29.74S
SHELBYVILLE    CLOUDY    57  57 100 S6        29.78S
$$

TNZ017-018-042-046-047-201300-
NORTHEAST TENNESSEE

CITY           SKY/WX    TMP DP  RH WIND       PRES   REMARKS
TRI CITIES     LGT RAIN  52  51  97 N3        29.81S
ELIZABETHTON   DRIZZLE   52  50  93 SE3       29.81F
$$

TNZ012-013-036-069-073-074-201300-
CENTRAL EAST TENNESSEE

CITY           SKY/WX    TMP DP  RH WIND       PRES   REMARKS
KNOXVILLE      CLOUDY    55  53  93 NW5       29.78R
OAK RIDGE      CLOUDY    53  51  93 CALM      29.80R
GATLINBURG     MOCLDY    52  52 100 CALM      29.78R
MORRISTOWN     CLOUDY    52  52 100 CALM      29.78S
JACKSBORO      CLOUDY    52  50  93 NE6       29.81R
$$

TNZ083-085-099-201300-
SOUTHEAST TENNESSEE

CITY           SKY/WX    TMP DP  RH WIND       PRES   REMARKS
CHATTANOOGA    MOCLDY    55  54  96 CALM      29.80R FOG
$$

SKY/WX REPORTED AS FAIR MEANS FEW OR NO CLOUDS BELOW
12 THOUSAND FEET.





USA.gov is the U.S. government's official web portal to all federal, state and local government web resources and services.